This is the latest recevied weather packets stored in our database for station/object KD5VOO. If no packets are shown the sender has not sent any weather packets the latest 10 day(s).
| Time | Temp. | Humidity | Pressure | Rain* | Wind** | Luminosity | Snow |
|---|---|---|---|---|---|---|---|
| 1777816656 | 20.56° C | 40% | 1019.3 hPa | 0 mm | - | 62 W/m² | - |
| 1777816353 | 20° C | 43% | 1019.7 hPa | 0 mm | - | 87 W/m² | - |
| 1777816051 | 20° C | 41% | 1019.7 hPa | 0 mm | - | 81 W/m² | - |
| 1777815748 | 19.44° C | 42% | 1019.3 hPa | 0 mm | - | 74 W/m² | - |
| 1777815446 | 18.33° C | 47% | 1019.7 hPa | 0 mm | - | 65 W/m² | - |
| 1777815143 | 17.78° C | 47% | 1019.7 hPa | 0 mm | - | 58 W/m² | - |
| 1777814839 | 17.22° C | 52% | 1019.7 hPa | 0 mm | - | 52 W/m² | - |
| 1777814535 | 16.11° C | 53% | 1019.3 hPa | 0 mm | - | 46 W/m² | - |
| 1777814233 | 15.56° C | 56% | 1019.3 hPa | 0 mm | - | 40 W/m² | - |
| 1777813929 | 15° C | 58% | 1019.3 hPa | 0 mm | - | 34 W/m² | - |
| 1777813627 | 14.44° C | 59% | 1019.3 hPa | 0 mm | - | 30 W/m² | - |
| 1777813324 | 13.89° C | 61% | 1019.3 hPa | 0 mm | - | 26 W/m² | - |
| 1777813021 | 13.33° C | 62% | 1019.3 hPa | 0 mm | - | 23 W/m² | - |
| 1777812719 | 13.33° C | 63% | 1019.3 hPa | 0 mm | - | 20 W/m² | - |
| 1777812415 | 12.78° C | 64% | 1019.3 hPa | 0 mm | - | 18 W/m² | - |
| 1777812114 | 12.22° C | 65% | 1019 hPa | 0 mm | - | 17 W/m² | - |
| 1777811812 | 11.67° C | 66% | 1019 hPa | 0 mm | - | 17 W/m² | - |
| 1777811509 | 11.11° C | 69% | 1018.7 hPa | 0 mm | - | 16 W/m² | - |
| 1777811204 | 11.11° C | 70% | 1018.7 hPa | 0 mm | - | 14 W/m² | - |
| 1777810902 | 10.56° C | 71% | 1018.7 hPa | 0 mm | - | 13 W/m² | - |
| 1777810598 | 10.56° C | 73% | 1018.7 hPa | 0 mm | - | 12 W/m² | - |
| 1777810296 | 10° C | 73% | 1018.7 hPa | 0 mm | - | 11 W/m² | - |
| 1777809991 | 10° C | 73% | 1018.7 hPa | 0 mm | - | 10 W/m² | - |
| 1777809690 | 9.44° C | 74% | 1018.7 hPa | 0 mm | - | 9 W/m² | - |
| 1777809387 | 9.44° C | 74% | 1018.7 hPa | 0 mm | - | 8 W/m² | - |
* Rain latest hour (hover to see other rain measurements)
** Current wind speed in m/s (hover to see current wind gust speed)